Вернуться в каталог

TJS-11

АктивенСвязьGEO
NORAD 59020·PAYLOAD·🇨🇳 China

Запущен Feb 23, 2024 с Wenchang Space Launch Site

Loading…

TLE

СвежийSource: Space-Track

Эпоха: Sep 14, 2026, 14:20 UTC

1 59020U 24037A   26257.59746110 -.00000371  00000-0  00000+0 0  9998
2 59020   4.0886 328.2443 0002628 271.0502  81.8361  1.00266945  9475

Отслеживайте TJS-11 в реальном времени с AllMySat

Download on the App Store